[[{"header":{"parameterUnit":"m.s-1","parameterCategory":1,"la1":30.2991,"la2":30.254,"lo1":-89.0895,"lo2":-89.0444,"dy":0.0017,"dx":0.0017,"nx":28,"ny":28,"refTime":"2024-07-08T21:00:00:Z","depth":0,"parameterNumber":2,"parameterNumberName":"U-component_of_WINDS"},"data":[0,0,0,0,0,0,0,0,0,0,0,0,0,0,0,0,0,0,0,0,0,0,0,0,0,0,0,0,0,0,0,0,0,0,0,0,0,0,0,0,0,0,0,0,0,0,0,0,0,0,0,0,0,0,0,0,0,0,4.6663,4.6664,0,4.6791,4.6792,4.6794,4.6759,4.6756,4.6754,4.6751,4.6884,4.689,4.6896,0,0,0,0,0,0,0,0,0,0,0,0,0,4.639,4.6395,4.6662,4.6664,4.6666,4.679,4.6792,4.6794,4.6759,4.6756,4.6753,4.675,4.6882,4.6889,4.6896,0,0,0,0,0,0,0,0,0,0,0,0,0,4.6512,4.6397,4.6662,4.6663,4.6665,4.679,4.6792,4.6794,4.676,4.6756,4.6752,4.6748,4.688,4.6889,4.6897,4.703,0,0,4.6925,4.6929,0,0,0,0,0,0,0,0,4.6505,4.6522,4.6662,4.6664,4.6665,4.6755,4.6745,4.6873,4.6761,4.6724,4.6751,4.6747,4.6844,4.6856,4.6889,4.7036,4.7042,4.6925,4.6931,4.6935,4.6937,0,0,0,0,0,0,0,4.6497,4.6516,4.6713,4.6664,4.6666,4.6658,4.6671,4.6769,4.6804,4.6727,4.6725,4.674,4.6845,4.688,4.6891,4.7044,4.6925,4.6933,4.6939,4.6942,4.7306,4.731,0,0,0,0,0,0,4.6487,4.651,4.6709,4.6717,4.6574,4.6666,4.6681,4.673,4.6803,4.6811,4.6743,4.6738,4.6867,4.6881,4.6896,4.7055,4.6935,4.6943,4.6948,4.7302,4.7307,4.7312,0,0,0,0,0,0,4.6481,4.6505,4.6704,4.6613,4.6638,4.6675,4.673,4.6735,4.677,4.6816,4.6822,4.6773,4.6864,4.6883,4.6997,4.7059,4.6947,4.6955,4.7297,4.7304,4.731,4.7375,0,0,0,0,0,0,4.6473,4.6503,4.6553,4.6614,4.6643,4.6802,4.6734,4.674,4.6785,4.6779,4.6845,4.6852,4.6863,4.6984,4.7006,4.707,4.6962,4.7291,4.73,4.7308,4.7368,4.7383,4.7397,0,0,0,0,0,4.6464,4.6567,4.6556,4.658,4.6706,4.6806,4.6822,4.6831,4.679,4.6841,4.6871,4.685,4.7049,4.6995,4.702,4.7088,4.7288,4.7298,4.7307,4.7361,4.738,4.7396,0,0,0,0,0,0,4.6513,4.6575,4.6563,4.6689,4.6743,4.68,4.6864,4.6851,4.6918,4.691,4.6919,4.6935,4.705,4.7081,4.7019,4.722,4.7162,4.7178,4.7195,4.7214,4.7228,4.7218,4.6969,0,0,0,0,0,4.6538,4.6614,4.6664,4.6771,4.6798,4.6827,4.687,4.6873,4.6929,4.6951,4.6989,4.7044,4.7119,4.7168,4.724,4.7372,4.7386,4.7431,4.7446,4.7457,4.747,4.7542,4.7562,4.7344,4.7344,4.7344,0,0,4.6592,4.6635,4.6682,4.6782,4.6823,4.6901,4.6846,4.6931,4.6989,4.6964,4.7073,4.7103,4.7165,4.7288,4.7345,4.7317,4.7533,4.747,4.7478,4.7485,4.7554,4.7574,4.7593,4.735,4.7349,4.7348,0,0,4.6729,4.6769,4.6862,4.6905,4.6968,4.6987,4.7009,4.7069,4.7087,4.7196,4.7179,4.7249,4.7378,4.7423,4.7463,4.7618,4.7601,4.7641,4.7716,4.7786,4.7803,4.7819,4.7873,4.7893,4.7654,4.7654,4.7654,0,4.6787,4.6903,4.6912,4.6998,4.7042,4.7024,4.7118,4.7159,4.7243,4.7274,4.7242,4.7403,4.7444,4.7577,4.7615,4.7649,4.7674,4.7633,4.78,4.7815,4.783,4.7882,4.7902,4.7658,4.7658,4.7657,4.7657,0,4.6972,4.7053,4.7121,4.7201,4.7253,4.7343,4.7365,4.7417,4.7416,4.7438,4.755,4.7598,4.7679,4.7711,4.7711,4.7845,4.7826,4.7797,4.774,4.7855,4.7904,4.7924,4.7665,4.7663,4.7662,4.7661,0,0,4.7142,4.7226,4.7251,4.7287,4.7356,4.7419,4.7509,4.7587,4.7631,4.769,4.7765,4.7875,4.7849,4.7894,4.7899,4.7961,4.808,4.7925,4.7926,4.7951,4.8229,4.8249,4.8272,4.8069,4.8073,4.8076,4.8224,0,4.7284,4.7441,4.7451,4.7592,4.7667,4.7651,4.7729,4.778,4.7803,4.7871,4.7897,4.7974,4.7935,4.7962,4.8022,4.8052,4.8135,4.8042,4.8139,4.8143,4.8123,4.8298,4.832,4.8456,4.8243,4.8246,4.8249,0,4.747,4.7534,4.7683,4.7741,4.7773,4.7843,4.7915,4.798,4.8038,4.8051,4.8101,4.8098,4.819,4.813,4.8258,4.8194,4.8235,4.8256,4.8261,4.827,4.8202,4.831,4.85,4.852,4.8279,4.8277,4.8274,0,4.7578,4.7702,4.7806,4.7838,4.7909,4.7958,4.799,4.8044,4.809,4.8155,4.8185,4.8259,4.83,4.8358,4.8375,4.833,4.8502,4.8443,4.8515,4.8514,4.8551,4.8548,4.8748,4.8579,4.8579,4.8578,4.8578,0,4.7735,4.7826,4.7856,4.792,4.8022,4.8034,4.8135,4.8164,4.8212,4.8282,4.8274,4.834,4.8359,4.8428,4.8443,4.8545,4.8564,4.8577,4.858,4.8577,4.8576,4.8603,4.8594,4.8584,4.8583,4.8581,4.8581,0,4.7872,4.7895,4.8008,4.8066,4.8083,4.8156,4.8205,4.8268,4.829,4.8379,4.84,4.8436,4.8518,4.854,4.8639,4.8648,4.8769,4.8763,4.8749,4.8749,4.8819,4.8811,4.9043,4.9074,4.8885,4.8887,4.8888,0,4.797,4.804,4.8105,4.8151,4.8185,4.8259,4.8306,4.8321,4.8371,4.8442,4.8496,4.8576,4.8641,4.8773,4.8808,4.8883,4.8878,4.8954,4.8889,4.8885,4.8878,4.8873,4.888,4.8966,4.8968,4.897,4.8971,0,4.814,4.8148,4.8216,4.8289,4.8346,4.8404,4.846,4.8498,4.8521,4.8577,4.866,4.8711,4.8811,4.8891,4.8967,4.9001,4.899,4.8991,4.9012,4.9009,4.8998,4.9004,4.8781,4.8986,4.8984,4.8983,4.8982,4.8982,4.826,4.8321,4.8376,4.8453,4.8496,4.8549,4.861,4.864,4.8709,4.8791,4.8796,4.8886,4.8943,4.9044,4.9082,4.9153,4.913,4.916,4.9167,4.9174,4.9179,4.8988,4.9167,4.9167,4.9166,4.9166,4.9166,0,4.8429,4.8464,4.8534,4.8612,4.8672,4.8657,4.8718,4.877,4.8849,4.8902,4.8966,4.9062,4.914,4.9181,4.9258,4.9307,4.9304,4.9327,4.9323,4.9331,4.9196,4.917,4.9328,4.9328,4.9328,4.9328,4.9328,4.9328,4.8524,4.8626,4.8641,4.8766,4.88,4.8888,4.8924,4.8972,4.9015,4.9122,4.9186,4.9212,4.9261,4.9342,4.9413,4.9423,4.9452,4.9477,4.9485,4.9357,4.9341,4.9325,4.93,4.9484,4.9484,4.9614,4.9615,4.9616]},{"header":{"parameterUnit":"m.s-1","parameterCategory":1,"la1":30.2991,"la2":30.254,"lo1":-89.0895,"lo2":-89.0444,"dy":0.0017,"dx":0.0017,"nx":28,"ny":28,"refTime":"2024-07-08T21:00:00:Z","depth":0,"parameterNumber":3,"parameterNumberName":"V-component_of_WINDS"},"data":[0,0,0,0,0,0,0,0,0,0,0,0,0,0,0,0,0,0,0,0,0,0,0,0,0,0,0,0,0,0,0,0,0,0,0,0,0,0,0,0,0,0,0,0,0,0,0,0,0,0,0,0,0,0,0,0,0,0,7.1218,7.1219,0,7.133,7.1331,7.1332,7.1332,7.1331,7.1329,7.1328,7.1434,7.1438,7.1442,0,0,0,0,0,0,0,0,0,0,0,0,0,7.0994,7.0999,7.1218,7.1219,7.1221,7.133,7.1331,7.1333,7.1332,7.1331,7.1329,7.1327,7.1433,7.1437,7.1442,0,0,0,0,0,0,0,0,0,0,0,0,0,7.1097,7.1,7.1217,7.1234,7.1236,7.1329,7.1331,7.1333,7.1333,7.1331,7.1329,7.1327,7.1431,7.1437,7.1443,7.1525,0,0,7.1462,7.1465,0,0,0,0,0,0,0,0,7.1091,7.1105,7.123,7.1233,7.1236,7.1315,7.1291,7.1397,7.1333,7.1296,7.1328,7.1325,7.1396,7.1405,7.143,7.153,7.1534,7.1463,7.1467,7.1469,7.1471,0,0,0,0,0,0,0,7.1084,7.11,7.1262,7.1232,7.1235,7.1233,7.1245,7.1311,7.1356,7.1299,7.1299,7.1313,7.1397,7.1424,7.1432,7.1536,7.1463,7.1468,7.1472,7.1474,7.1706,7.1709,0,0,0,0,0,0,7.1075,7.1095,7.1258,7.1265,7.1157,7.1238,7.1252,7.1292,7.1355,7.1363,7.1315,7.1313,7.1414,7.1425,7.1436,7.1535,7.1469,7.1475,7.1479,7.1704,7.1707,7.171,0,0,0,0,0,0,7.107,7.109,7.1254,7.118,7.1201,7.1245,7.1289,7.1295,7.1323,7.1368,7.1375,7.1335,7.1413,7.1427,7.1503,7.1539,7.1478,7.1484,7.1701,7.1705,7.1708,7.1734,0,0,0,0,0,0,7.1064,7.1088,7.1122,7.1181,7.1205,7.1321,7.1291,7.1299,7.1334,7.1333,7.1388,7.1396,7.1413,7.1494,7.1509,7.1546,7.1488,7.1698,7.1703,7.1707,7.173,7.1738,7.1745,0,0,0,0,0,7.1056,7.1123,7.1123,7.1143,7.1248,7.1324,7.1337,7.1358,7.1337,7.137,7.1399,7.1394,7.1533,7.1502,7.1519,7.1558,7.1696,7.1701,7.1707,7.1727,7.1736,7.1745,0,0,0,0,0,0,7.1063,7.1131,7.1132,7.1221,7.1267,7.1323,7.1365,7.1367,7.1418,7.1414,7.1435,7.1447,7.1522,7.1548,7.1512,7.164,7.1611,7.1621,7.1621,7.163,7.1637,7.1629,7.1494,0,0,0,0,0,7.1075,7.1134,7.1189,7.1261,7.1285,7.1321,7.1355,7.1367,7.1414,7.1433,7.1467,7.1511,7.1564,7.1599,7.165,7.1734,7.1745,7.177,7.1777,7.1783,7.179,7.1835,7.1846,7.1727,7.1727,7.1727,0,0,7.11,7.1145,7.118,7.1264,7.1301,7.1358,7.1337,7.1399,7.1441,7.1441,7.1515,7.1542,7.1592,7.1672,7.1709,7.1695,7.1825,7.179,7.1794,7.1798,7.1842,7.1853,7.1863,7.1731,7.173,7.173,0,0,7.1175,7.1216,7.128,7.1319,7.1376,7.14,7.1416,7.1473,7.1491,7.1567,7.1568,7.1617,7.1709,7.1744,7.1774,7.1863,7.1859,7.1879,7.1916,7.196,7.1969,7.1978,7.2008,7.2019,7.1886,7.1886,7.1886,0,7.1198,7.1288,7.1312,7.1375,7.1411,7.1417,7.1481,7.1516,7.1586,7.1609,7.1595,7.171,7.1744,7.1832,7.1854,7.1878,7.1894,7.1872,7.1967,7.1975,7.1983,7.2012,7.2024,7.1888,7.1888,7.1887,7.1887,0,7.1312,7.1374,7.1419,7.149,7.1531,7.1594,7.1625,7.1663,7.1672,7.1697,7.1772,7.1814,7.1873,7.1895,7.1903,7.1984,7.1974,7.1963,7.1934,7.1996,7.2023,7.2035,7.189,7.189,7.1889,7.1889,0,0,7.1394,7.1479,7.1495,7.1527,7.1591,7.1638,7.17,7.1761,7.1793,7.1841,7.1892,7.197,7.196,7.1994,7.2006,7.2044,7.211,7.2028,7.2029,7.2041,7.22,7.2207,7.222,7.2109,7.2111,7.2113,7.2195,0,7.1474,7.1589,7.1613,7.171,7.1766,7.1773,7.1826,7.187,7.1895,7.1943,7.1969,7.2024,7.2008,7.2028,7.2067,7.2094,7.2142,7.2089,7.2154,7.2156,7.214,7.2235,7.2243,7.2318,7.2206,7.2208,7.2209,0,7.1584,7.1638,7.1742,7.1799,7.1823,7.1871,7.1929,7.1977,7.2026,7.2041,7.2079,7.2087,7.2149,7.2119,7.2203,7.2166,7.2194,7.2211,7.2215,7.222,7.2186,7.2241,7.2343,7.2353,7.2227,7.2225,7.2224,0,7.1631,7.173,7.1805,7.1832,7.19,7.1934,7.1963,7.201,7.2045,7.2095,7.2118,7.2173,7.2203,7.2244,7.2265,7.2242,7.2347,7.2319,7.2359,7.2359,7.238,7.2378,7.2486,7.24,7.24,7.24,7.24,0,7.1718,7.1781,7.1827,7.1873,7.1942,7.1968,7.2035,7.2064,7.2106,7.2155,7.2163,7.2208,7.2235,7.2283,7.23,7.2366,7.238,7.2392,7.2395,7.2391,7.2389,7.2408,7.2403,7.2403,7.2402,7.2402,7.2401,0,7.1783,7.1816,7.1898,7.1957,7.1973,7.2022,7.207,7.2114,7.2139,7.2201,7.2217,7.2255,7.2312,7.2339,7.2408,7.242,7.2495,7.2495,7.2479,7.248,7.2518,7.2514,7.2641,7.2659,7.2563,7.2563,7.2564,0,7.1836,7.1884,7.1949,7.1985,7.2016,7.2072,7.2109,7.2136,7.2173,7.2232,7.2268,7.2326,7.2374,7.2465,7.2497,7.2551,7.2551,7.2592,7.2559,7.2553,7.255,7.2547,7.2551,7.2598,7.2599,7.2599,7.26,0,7.1925,7.194,7.1994,7.2055,7.2099,7.2147,7.2194,7.2222,7.2255,7.2296,7.2357,7.2395,7.2467,7.2524,7.258,7.2607,7.2608,7.2611,7.2623,7.2617,7.2606,7.2611,7.2494,7.2607,7.2606,7.2606,7.2606,7.2605,7.1984,7.2028,7.2081,7.2141,7.218,7.2224,7.2267,7.2299,7.2351,7.2414,7.2426,7.249,7.2536,7.2611,7.2641,7.2689,7.2679,7.2696,7.27,7.2704,7.2706,7.26,7.2699,7.2699,7.2699,7.2698,7.2698,0,7.2073,7.2108,7.2164,7.2231,7.2277,7.2279,7.233,7.2368,7.2426,7.247,7.2518,7.2587,7.2642,7.2679,7.2735,7.2766,7.2768,7.278,7.2777,7.2783,7.2712,7.2696,7.2777,7.2777,7.2777,7.2777,7.2777,7.2777,7.2125,7.2199,7.222,7.2312,7.2345,7.241,7.244,7.2479,7.2515,7.2592,7.264,7.2665,7.2706,7.2764,7.2814,7.2823,7.2843,7.2854,7.2863,7.2796,7.2788,7.278,7.2764,7.2859,7.2859,7.2929,7.293,7.293]}]]